Time,TemperatureF,DewpointF,PressureIn,WindDirection,WindDirectionDegrees,WindSpeedMPH,WindSpeedGustMPH,Humidity,HourlyPrecipIn,Conditions,Clouds,dailyrainin,SoftwareType,DateUTC
2015-03-06 00:51:00,73.6,70.2,30.11,WSW,239,0.0,0.0,89,0.00,,BKN070,0.00,VWS V14.00,2015-03-06 05:51:00,
2015-03-06 01:51:00,73.8,70.4,30.09,WSW,239,0.0,0.0,89,0.00,,BKN070,0.00,VWS V14.00,2015-03-06 06:51:00,
2015-03-06 02:51:00,73.1,70.0,30.09,WSW,239,0.0,0.0,90,0.00,,BKN090,0.00,VWS V14.00,2015-03-06 07:51:00,
2015-03-06 03:51:00,72.6,70.2,30.08,WSW,239,0.0,0.0,92,0.00,,BKN060,0.00,VWS V14.00,2015-03-06 08:51:00,
2015-03-06 04:51:00,73.1,71.0,30.09,WSW,239,0.0,0.0,93,0.00,,BKN070,0.00,VWS V14.00,2015-03-06 09:51:00,
2015-03-06 05:51:00,73.3,70.8,30.10,WSW,239,0.0,0.0,92,0.00,,BKN041,0.00,VWS V14.00,2015-03-06 10:51:00,
2015-03-06 06:51:00,71.2,68.8,30.12,NW,311,0.0,5.0,92,0.05,,OVC065,0.02,VWS V14.00,2015-03-06 11:51:00,
2015-03-06 07:51:00,71.3,69.5,30.14,NW,311,0.0,0.0,94,0.00,,OVC065,0.04,VWS V14.00,2015-03-06 12:51:00,
2015-03-06 08:51:00,72.4,69.9,30.15,NW,311,0.0,3.0,92,0.00,,-RA,0.04,VWS V14.00,2015-03-06 13:51:00,
2015-03-06 09:51:00,77.2,71.6,30.16,NW,305,0.0,3.0,83,0.00,,-RA,0.04,VWS V14.00,2015-03-06 14:51:00,
2015-03-06 10:51:00,77.1,71.5,30.16,West,259,0.0,5.0,83,0.00,,OVC049,0.04,VWS V14.00,2015-03-06 15:51:00,
2015-03-06 11:51:00,78.7,72.0,30.15,ESE,105,0.0,5.0,80,0.00,,BKN050,0.04,VWS V14.00,2015-03-06 16:51:00,
2015-03-06 12:51:00,79.2,71.8,30.13,East,80,6.0,9.0,78,0.00,,BKN039,0.04,VWS V14.00,2015-03-06 17:51:00,
2015-03-06 13:51:00,79.0,72.3,30.11,ESE,117,2.0,9.0,80,0.00,,BKN045,0.04,VWS V14.00,2015-03-06 18:51:00,
2015-03-06 14:51:00,78.9,72.2,30.10,ENE,73,5.0,9.0,80,0.00,,SCT042TCU,0.04,VWS V14.00,2015-03-06 19:51:00,
2015-03-06 15:51:00,79.0,72.7,30.09,NE,35,1.0,11.0,81,0.00,,SCT042TCU,0.04,VWS V14.00,2015-03-06 20:51:00,
2015-03-06 16:51:00,76.0,71.2,30.10,ENE,60,6.0,13.0,85,0.00,,BKN110,0.04,VWS V14.00,2015-03-06 21:51:00,
2015-03-06 17:51:00,75.5,71.0,30.11,NE,49,0.0,12.0,86,0.00,,BKN065,0.04,VWS V14.00,2015-03-06 22:51:00,
2015-03-06 18:51:00,75.0,71.5,30.12,NNE,17,0.0,9.0,89,0.00,,BKN080,0.04,VWS V14.00,2015-03-06 23:51:00,
2015-03-06 19:51:00,75.0,71.2,30.13,NE,49,0.0,10.0,88,0.00,,BKN120,0.04,VWS V14.00,2015-03-07 00:51:00,
2015-03-06 20:51:00,74.0,70.6,30.15,North,11,0.0,15.0,89,0.00,,BKN110,0.04,VWS V14.00,2015-03-07 01:51:00,